User: anonymous
Location: Waldport
(44.4270°N, 124.0680°W)
Time: 19:25:52
(UTC-07:00)
Language:

Cosmos 1023 Rocket - Orbit

View from above orbital plane
View from above orbital plane
View from above satellite
View from above satellite

Ground track
Ground track

The orbit data is extracted from the following two-line orbital elements,

1 10962U 78063B   14212.61971183  .00000240  00000-0  82986-4 0  8002
2 10962 074.0823 359.7149 0025073 175.2818 243.5737 14.40682173894425
Epoch (UTC): 31 July 2014 14:52:23
Eccentricity: 0.0025073
inclination: 74.0823°
perigee height: 738 km
apogee height: 774 km
right ascension of ascending node: 359.7149°
argument of perigee: 175.2818°
revolutions per day: 14.40682173
mean anomaly at epoch: 243.5737°
orbit number at epoch: 89442

The dashed part of the orbit path shows where the satellite is in the earth's shadow,  

DLR